| time (UTC) | temp C | wind direction | speed KPH | gust KPH | rain 1hr cm | rain 24hr cm | rain mn cm | humidity % | barometer mb |
| 20260506103011 | 22 | 180 | 6.4 | 11.3 | 0.00 | 0.00 | 0.00 | 48 | 1005.5 |
| 20260506102010 | 22 | 225 | 6.4 | 16.1 | 0.00 | 0.00 | 0.00 | 50 | 1005.6 |
| 20260506101008 | 21 | 270 | 9.7 | 19.3 | 0.00 | 0.00 | 0.00 | 53 | 1005.7 |
| 20260506095009 | 20 | 225 | 8.0 | 14.5 | 0.00 | 0.00 | 0.00 | 58 | 1005.7 |
| 20260506094008 | 19 | 0 | 8.0 | 12.9 | 0.00 | 0.00 | 0.00 | 60 | 1005.7 |
| 20260506093010 | 19 | 225 | 9.7 | 17.7 | 0.00 | 0.00 | 0.00 | 61 | 1005.7 |
| 20260506092008 | 20 | 270 | 9.7 | 19.3 | 0.00 | 0.00 | 0.00 | 58 | 1005.7 |
| 20260506091008 | 20 | 225 | 12.9 | 19.3 | 0.00 | 0.00 | 0.00 | 59 | 1005.6 |
| 20260506090012 | 20 | 225 | 8.0 | 16.1 | 0.00 | 0.00 | 0.00 | 55 | 1005.5 |
| 20260506085009 | 19 | 270 | 11.3 | 16.1 | 0.00 | 0.00 | 0.00 | 61 | 1005.7 |
| 20260506084008 | 20 | 225 | 8.0 | 14.5 | 0.00 | 0.00 | 0.00 | 62 | 1005.5 |
| 20260506083012 | 19 | 225 | 8.0 | 16.1 | 0.00 | 0.00 | 0.00 | 60 | 1005.6 |
| 20260506082009 | 18 | 270 | 11.3 | 17.7 | 0.00 | 0.00 | 0.00 | 65 | 1005.8 |
| 20260506081010 | 17 | 270 | 11.3 | 17.7 | 0.00 | 0.00 | 0.00 | 66 | 1005.9 |
| 20260506073010 | 17 | 270 | 8.0 | 12.9 | 0.00 | 0.00 | 0.00 | 70 | 1006.0 |
| 20260506072009 | 16 | 270 | 11.3 | 16.1 | 0.00 | 0.00 | 0.00 | 71 | 1006.1 |
| 20260506071006 | 16 | 270 | 8.0 | 12.9 | 0.00 | 0.00 | 0.00 | 71 | 1006.1 |
| 20260506062009 | 15 | 225 | 9.7 | 16.1 | 0.00 | 0.00 | 0.00 | 77 | 1006.2 |
| 20260506061006 | 15 | 270 | 8.0 | 12.9 | 0.00 | 0.00 | 0.00 | 79 | 1006.0 |
| 20260506051008 | 12 | 180 | 0.0 | 0.0 | 0.00 | 0.00 | 0.00 | 94 | 1006.0 |
| 20260506045009 | 12 | 180 | 0.0 | 1.6 | 0.00 | 0.00 | 0.00 | 95 | 1006.2 |
| 20260506044009 | 12 | 0 | 0.0 | 0.0 | 0.00 | 0.00 | 0.00 | 95 | 1006.1 |
| 20260506042008 | 11 | 180 | 0.0 | 0.0 | 0.00 | 0.00 | 0.00 | 95 | 1005.8 |
| 20260506041006 | 11 | 180 | 0.0 | 0.0 | 0.00 | 0.00 | 0.00 | 95 | 1005.6 |
| 20260506040013 | 11 | 180 | 0.0 | 1.6 | 0.00 | 0.00 | 0.00 | 95 | 1005.6 |
| 20260506035007 | 11 | 180 | 0.0 | 1.6 | 0.00 | 0.00 | 0.00 | 94 | 1005.5 |
| 20260506033010 | 11 | 270 | 0.0 | 3.2 | 0.00 | 0.00 | 0.00 | 93 | 1005.5 |
| 20260506032008 | 12 | 270 | 0.0 | 3.2 | 0.00 | 0.00 | 0.00 | 94 | 1005.5 |
| 20260506031008 | 12 | 270 | 3.2 | 4.8 | 0.00 | 0.00 | 0.00 | 94 | 1005.6 |
| 20260506025009 | 12 | 270 | 6.4 | 9.7 | 0.00 | 0.00 | 0.00 | 94 | 1005.5 |
| 20260506024008 | 11 | 225 | 3.2 | 6.4 | 0.00 | 0.00 | 0.00 | 93 | 1005.4 |
| 20260506023008 | 12 | 270 | 4.8 | 6.4 | 0.00 | 0.00 | 0.00 | 93 | 1005.2 |
| 20260506022011 | 12 | 270 | 3.2 | 6.4 | 0.00 | 0.00 | 0.00 | 92 | 1005.1 |
| 20260506020013 | 13 | 225 | 0.0 | 0.0 | 0.00 | 0.00 | 0.00 | 89 | 1004.6 |
| 20260506015008 | 13 | 270 | 3.2 | 6.4 | 0.00 | 0.00 | 0.00 | 89 | 1005.0 |
| 20260506014008 | 13 | 225 | 6.4 | 9.7 | 0.00 | 0.00 | 0.00 | 87 | 1005.2 |
| 20260506012008 | 14 | 270 | 6.4 | 8.0 | 0.00 | 0.00 | 0.00 | 83 | 1004.8 |
| 20260506011008 | 15 | 0 | 3.2 | 8.0 | 0.00 | 0.00 | 0.00 | 81 | 1004.8 |
| 20260506010012 | 15 | 0 | 3.2 | 6.4 | 0.00 | 0.00 | 0.00 | 80 | 1004.5 |
| 20260506005008 | 15 | 0 | 3.2 | 6.4 | 0.00 | 0.00 | 0.00 | 79 | 1004.6 |
| 20260506004008 | 15 | 0 | 4.8 | 9.7 | 0.00 | 0.00 | 0.00 | 79 | 1004.4 |
| 20260506003009 | 15 | 225 | 6.4 | 12.9 | 0.00 | 0.00 | 0.00 | 79 | 1004.7 |
| 20260506002008 | 15 | 0 | 6.4 | 14.5 | 0.00 | 0.00 | 0.00 | 79 | 1004.6 |
| 20260506001008 | 15 | 315 | 6.4 | 11.3 | 0.00 | 0.00 | 0.00 | 81 | 1004.7 |
| 20260506000016 | 15 | 270 | 6.4 | 9.7 | 0.00 | 0.00 | 0.00 | 77 | 1004.9 |
| 20260505235012 | 14 | 270 | 6.4 | 8.0 | 0.00 | 0.00 | 0.00 | 69 | 1004.8 |
| 20260505231009 | 16 | 180 | 1.6 | 4.8 | 0.00 | 0.00 | 0.00 | 60 | 1004.4 |
| 20260505230014 | 16 | 180 | 1.6 | 6.4 | 0.00 | 0.00 | 0.00 | 59 | 1004.4 |
| 20260505225007 | 17 | 180 | 4.8 | 8.0 | 0.00 | 0.00 | 0.00 | 57 | 1004.4 |
| 20260505224009 | 17 | 180 | 4.8 | 6.4 | 0.00 | 0.00 | 0.00 | 56 | 1004.4 |
| 20260505223015 | 17 | 180 | 3.2 | 6.4 | 0.00 | 0.00 | 0.00 | 56 | 1004.5 |
| 20260505222009 | 17 | 135 | 6.4 | 9.7 | 0.00 | 0.00 | 0.00 | 57 | 1003.4 |
| 20260505221009 | 17 | 0 | 6.4 | 14.5 | 0.00 | 0.00 | 0.00 | 57 | 1003.2 |
| 20260505220015 | 17 | 135 | 6.4 | 11.3 | 0.00 | 0.00 | 0.00 | 57 | 1003.1 |
| 20260505215008 | 16 | 135 | 6.4 | 9.7 | 0.00 | 0.00 | 0.00 | 59 | 1003.2 |
| 20260505214009 | 16 | 90 | 3.2 | 6.4 | 0.00 | 0.00 | 0.00 | 63 | 1003.4 |
| 20260505213009 | 16 | 90 | 3.2 | 6.4 | 0.00 | 0.00 | 0.00 | 64 | 1003.4 |
| 20260505212012 | 16 | 90 | 1.6 | 4.8 | 0.00 | 0.00 | 0.00 | 70 | 1003.3 |
| 20260505211010 | 16 | 90 | 1.6 | 3.2 | 0.00 | 0.00 | 0.00 | 71 | 1003.4 |
| 20260505210013 | 16 | 90 | 1.6 | 4.8 | 0.00 | 0.00 | 0.00 | 71 | 1003.3 |
| 20260505205008 | 16 | 180 | 1.6 | 4.8 | 0.00 | 0.00 | 0.00 | 71 | 1003.2 |
| 20260505204009 | 16 | 180 | 1.6 | 4.8 | 0.00 | 0.00 | 0.00 | 71 | 1003.3 |
| 20260505203009 | 16 | 225 | 1.6 | 3.2 | 0.00 | 0.00 | 0.00 | 72 | 1003.4 |
| 20260505202009 | 17 | 0 | 0.0 | 1.6 | 0.00 | 0.00 | 0.00 | 69 | 1003.2 |
| 20260505201008 | 16 | 135 | 1.6 | 4.8 | 0.00 | 0.00 | 0.00 | 69 | 1003.2 |
| 20260505200013 | 17 | 90 | 1.6 | 4.8 | 0.00 | 0.00 | 0.00 | 68 | 1003.2 |
| 20260505195007 | 17 | 45 | 0.0 | 3.2 | 0.00 | 0.00 | 0.00 | 66 | 1003.3 |
| 20260505194008 | 17 | 90 | 3.2 | 6.4 | 0.00 | 0.00 | 0.00 | 66 | 1003.4 |
| 20260505193007 | 18 | 0 | 3.2 | 6.4 | 0.00 | 0.00 | 0.00 | 65 | 1003.1 |
| 20260505191010 | 17 | 0 | 0.0 | 1.6 | 0.00 | 0.00 | 0.00 | 66 | 1003.3 |
| 20260505185009 | 18 | 45 | 3.2 | 6.4 | 0.00 | 0.00 | 0.00 | 63 | 1003.0 |
| 20260505184009 | 18 | 0 | 0.0 | 3.2 | 0.00 | 0.00 | 0.00 | 63 | 1003.0 |
| 20260505183011 | 18 | 0 | 3.2 | 6.4 | 0.00 | 0.00 | 0.00 | 61 | 1002.9 |
| 20260505182010 | 19 | 0 | 4.8 | 8.0 | 0.00 | 0.00 | 0.00 | 60 | 1003.0 |
| 20260505181010 | 19 | 0 | 12.9 | 17.7 | 0.00 | 0.00 | 0.00 | 58 | 1003.0 |
| 20260505180012 | 20 | 0 | 11.3 | 17.7 | 0.00 | 0.00 | 0.00 | 55 | 1002.8 |
| 20260505174008 | 21 | 90 | 0.0 | 1.6 | 0.00 | 0.00 | 0.00 | 45 | 1002.4 |
| 20260505173011 | 21 | 90 | 1.6 | 3.2 | 0.00 | 0.00 | 0.00 | 44 | 1002.4 |
| 20260505172009 | 22 | 90 | 1.6 | 3.2 | 0.00 | 0.00 | 0.00 | 44 | 1002.4 |
| 20260505171009 | 22 | 90 | 3.2 | 6.4 | 0.00 | 0.00 | 0.00 | 43 | 1002.5 |
| 20260505170012 | 22 | 90 | 3.2 | 6.4 | 0.00 | 0.00 | 0.00 | 42 | 1002.4 |
| 20260505165009 | 22 | 135 | 3.2 | 4.8 | 0.00 | 0.00 | 0.00 | 41 | 1002.4 |
| 20260505163011 | 23 | 90 | 4.8 | 8.0 | 0.00 | 0.00 | 0.00 | 38 | 1002.4 |
| 20260505162005 | 23 | 135 | 6.4 | 12.9 | 0.00 | 0.00 | 0.00 | 38 | 1002.4 |
| 20260505161008 | 24 | 135 | 6.4 | 11.3 | 0.00 | 0.00 | 0.00 | 37 | 1002.5 |
| 20260505153011 | 27 | 180 | 6.4 | 16.1 | 0.00 | 0.00 | 0.00 | 36 | 1002.2 |
| 20260505152011 | 27 | 180 | 6.4 | 14.5 | 0.00 | 0.00 | 0.00 | 37 | 1002.3 |
| 20260505151009 | 27 | 135 | 6.4 | 11.3 | 0.00 | 0.00 | 0.00 | 34 | 1002.2 |
| 20260505125009 | 26 | 90 | 3.2 | 6.4 | 0.00 | 0.00 | 0.00 | 35 | 1004.0 |
| 20260505124007 | 26 | 225 | 6.4 | 11.3 | 0.00 | 0.00 | 0.00 | 39 | 1004.2 |
| 20260505122010 | 25 | 180 | 6.4 | 11.3 | 0.00 | 0.00 | 0.00 | 36 | 1004.5 |
| 20260505121009 | 25 | 225 | 4.8 | 11.3 | 0.00 | 0.00 | 0.00 | 36 | 1004.5 |
| 20260505120014 | 25 | 225 | 4.8 | 11.3 | 0.00 | 0.00 | 0.00 | 37 | 1004.7 |
| 20260505115012 | 24 | 225 | 6.4 | 9.7 | 0.00 | 0.00 | 0.00 | 38 | 1004.7 |
| 20260505113011 | 25 | 135 | 4.8 | 16.1 | 0.00 | 0.00 | 0.00 | 38 | 1004.7 |
| 20260505112007 | 24 | 225 | 3.2 | 6.4 | 0.00 | 0.00 | 0.00 | 39 | 1005.0 |
| 20260505111008 | 23 | 180 | 3.2 | 6.4 | 0.00 | 0.00 | 0.00 | 39 | 1005.2 |